TimeEST,TemperatureF,Dew PointF,Humidity,Sea Level PressureIn,VisibilityMPH,Wind Direction,Wind SpeedMPH,Gust SpeedMPH,PrecipitationIn,Events,Conditions,WindDirDegrees,DateUTC
12:15 AM,37.4,32.0,81,30.12,10.0,ENE,10.4,-,N/A,,Overcast,60,2012-11-07 05:15:00
12:35 AM,39.2,32.0,75,30.10,10.0,NE,12.7,-,N/A,,Mostly Cloudy,50,2012-11-07 05:35:00
12:55 AM,39.2,32.0,75,30.09,10.0,NE,13.8,-,N/A,,Partly Cloudy,50,2012-11-07 05:55:00
1:15 AM,41.0,32.0,70,30.08,10.0,ENE,12.7,18.4,N/A,,Clear,70,2012-11-07 06:15:00
1:35 AM,41.0,32.0,70,30.08,10.0,ENE,10.4,20.7,N/A,,Scattered Clouds,70,2012-11-07 06:35:00
1:55 AM,41.0,32.0,70,30.09,10.0,East,11.5,18.4,N/A,,Overcast,80,2012-11-07 06:55:00
2:15 AM,41.0,32.0,70,30.08,10.0,ENE,11.5,-,N/A,,Overcast,70,2012-11-07 07:15:00
2:35 AM,42.8,32.0,66,30.06,10.0,ENE,13.8,21.9,N/A,,Overcast,60,2012-11-07 07:35:00
2:55 AM,42.8,32.0,66,30.06,10.0,ENE,15.0,18.4,N/A,,Overcast,60,2012-11-07 07:55:00
3:15 AM,42.8,32.0,66,30.06,10.0,ENE,20.7,25.3,N/A,,Overcast,60,2012-11-07 08:15:00
3:35 AM,42.8,32.0,66,30.05,10.0,ENE,17.3,24.2,N/A,,Overcast,60,2012-11-07 08:35:00
3:55 AM,42.8,32.0,66,30.04,10.0,ENE,25.3,32.2,N/A,,Overcast,60,2012-11-07 08:55:00
4:15 AM,42.8,32.0,66,30.02,10.0,NE,23.0,31.1,N/A,,Overcast,50,2012-11-07 09:15:00
4:35 AM,42.8,32.0,66,30.00,10.0,ENE,21.9,33.4,N/A,,Mostly Cloudy,60,2012-11-07 09:35:00
4:55 AM,42.8,32.0,66,30.00,10.0,ENE,21.9,32.2,N/A,,Overcast,60,2012-11-07 09:55:00
5:15 AM,42.8,32.0,66,29.99,10.0,NE,25.3,34.5,N/A,Thunderstorm,Overcast,50,2012-11-07 10:15:00
5:35 AM,42.8,32.0,66,29.99,10.0,ENE,23.0,40.3,N/A,,Overcast,60,2012-11-07 10:35:00
5:55 AM,44.6,32.0,61,29.99,10.0,NE,24.2,34.5,N/A,,Overcast,50,2012-11-07 10:55:00
6:15 AM,44.6,32.0,61,29.96,10.0,NE,23.0,35.7,N/A,,Overcast,50,2012-11-07 11:15:00
6:35 AM,44.6,33.8,66,29.96,10.0,NE,27.6,38.0,N/A,,Overcast,50,2012-11-07 11:35:00
6:55 AM,44.6,33.8,66,29.94,10.0,NE,25.3,41.4,N/A,,Overcast,50,2012-11-07 11:55:00
7:15 AM,44.6,33.8,66,29.94,10.0,NE,24.2,38.0,N/A,,Overcast,50,2012-11-07 12:15:00
7:35 AM,44.6,35.6,71,29.93,10.0,NE,27.6,41.4,N/A,,Overcast,50,2012-11-07 12:35:00
7:55 AM,44.6,35.6,71,29.90,10.0,NE,31.1,47.2,N/A,,Overcast,50,2012-11-07 12:55:00
8:15 AM,44.6,35.6,71,29.91,10.0,NE,27.6,49.5,N/A,,Overcast,50,2012-11-07 13:15:00
8:35 AM,44.6,35.6,71,29.90,10.0,NE,24.2,39.1,N/A,,Overcast,40,2012-11-07 13:35:00
8:55 AM,44.6,35.6,71,29.90,10.0,NE,27.6,41.4,N/A,,Overcast,50,2012-11-07 13:55:00
9:15 AM,44.6,35.6,71,29.91,10.0,NE,24.2,35.7,N/A,,Overcast,40,2012-11-07 14:15:00
9:35 AM,44.6,35.6,71,29.90,10.0,NE,25.3,42.6,N/A,,Overcast,40,2012-11-07 14:35:00
9:55 AM,44.6,35.6,71,29.89,10.0,NE,29.9,42.6,N/A,,Overcast,50,2012-11-07 14:55:00
10:15 AM,44.6,33.8,66,29.86,10.0,NE,29.9,44.9,N/A,,Overcast,40,2012-11-07 15:15:00
10:35 AM,44.6,33.8,66,29.85,10.0,NE,31.1,46.0,N/A,,Overcast,50,2012-11-07 15:35:00
10:55 AM,44.6,33.8,66,29.86,10.0,NE,31.1,46.0,N/A,,Overcast,50,2012-11-07 15:55:00
11:15 AM,44.6,33.8,66,29.84,10.0,NE,28.8,48.3,N/A,,Overcast,50,2012-11-07 16:15:00
11:35 AM,44.6,32.0,61,29.84,10.0,NE,28.8,47.2,N/A,,Overcast,50,2012-11-07 16:35:00
11:55 AM,44.6,33.8,66,29.83,9.0,NE,29.9,44.9,N/A,,Overcast,40,2012-11-07 16:55:00
12:15 PM,44.6,35.6,71,29.83,7.0,NE,31.1,41.4,N/A,Rain,Light Rain,40,2012-11-07 17:15:00
12:35 PM,44.6,32.0,61,29.82,10.0,NE,28.8,50.6,N/A,,Overcast,50,2012-11-07 17:35:00
1:15 PM,41.0,33.8,76,29.79,2.5,NE,39.1,52.9,N/A,Rain,Light Rain,50,2012-11-07 18:15:00
1:35 PM,41.0,33.8,76,29.77,4.0,NE,43.7,56.4,0.02,Rain,Light Rain,50,2012-11-07 18:35:00
1:55 PM,41.0,35.6,81,29.76,4.0,NE,25.3,49.5,0.03,Rain,Light Rain,40,2012-11-07 18:55:00
2:15 PM,41.0,33.8,76,29.77,6.0,NE,26.5,39.1,N/A,Rain,Light Rain,50,2012-11-07 19:15:00
2:35 PM,39.2,35.6,87,29.78,2.0,NE,31.1,49.5,0.01,Rain,Light Rain,50,2012-11-07 19:35:00
2:55 PM,39.2,35.6,87,29.77,2.0,NE,34.5,48.3,0.02,,Mostly Cloudy,40,2012-11-07 19:55:00
3:15 PM,39.2,35.6,87,29.76,1.8,NE,29.9,49.5,0.01,,Mostly Cloudy,50,2012-11-07 20:15:00
3:35 PM,37.4,35.6,93,29.76,1.0,NE,40.3,50.6,0.03,Snow,Light Snow,50,2012-11-07 20:35:00
3:55 PM,37.4,35.6,93,29.75,1.2,NE,33.4,43.7,0.07,,Clear,50,2012-11-07 20:55:00
4:15 PM,37.4,35.6,93,29.74,3.0,NE,26.5,46.0,0.01,,Scattered Clouds,40,2012-11-07 21:15:00
4:35 PM,39.2,37.4,93,29.74,3.0,NE,32.2,52.9,0.04,,Mostly Cloudy,50,2012-11-07 21:35:00
4:55 PM,39.2,37.4,93,29.74,3.0,NE,28.8,49.5,0.06,,Scattered Clouds,50,2012-11-07 21:55:00
5:15 PM,39.2,37.4,93,29.72,2.5,NE,34.5,49.5,0.02,,Partly Cloudy,40,2012-11-07 22:15:00
5:35 PM,39.2,37.4,93,29.70,2.5,NE,32.2,50.6,0.05,,Scattered Clouds,40,2012-11-07 22:35:00
5:55 PM,39.2,35.6,87,29.70,3.0,NE,39.1,51.8,0.11,,Scattered Clouds,40,2012-11-07 22:55:00
6:15 PM,39.2,37.4,93,29.72,3.0,NE,32.2,48.3,0.02,,Scattered Clouds,50,2012-11-07 23:15:00
6:35 PM,39.2,37.4,93,29.70,4.0,NE,38.0,50.6,0.05,,Scattered Clouds,40,2012-11-07 23:35:00
6:55 PM,39.2,37.4,93,29.69,3.0,NE,34.5,50.6,0.10,,Mostly Cloudy,40,2012-11-07 23:55:00
7:15 PM,39.2,37.4,93,29.67,3.0,NE,40.3,55.2,0.03,,Scattered Clouds,40,2012-11-08 00:15:00
7:35 PM,39.2,37.4,93,29.67,3.0,NE,33.4,51.8,0.07,,Scattered Clouds,40,2012-11-08 00:35:00
7:55 PM,39.2,37.4,93,29.66,2.5,NE,31.1,46.0,0.11,,Partly Cloudy,40,2012-11-08 00:55:00
8:15 PM,39.2,37.4,93,29.64,2.0,NE,35.7,49.5,0.04,,Clear,40,2012-11-08 01:15:00
8:35 PM,39.2,37.4,93,29.64,2.0,NE,33.4,48.3,0.11,,Clear,40,2012-11-08 01:35:00
8:55 PM,39.2,37.4,93,29.63,2.0,NE,39.1,57.5,0.15,,Scattered Clouds,40,2012-11-08 01:55:00
9:15 PM,39.2,37.4,93,29.62,3.0,NE,35.7,51.8,0.03,,Scattered Clouds,40,2012-11-08 02:15:00
9:35 PM,39.2,37.4,93,29.61,3.0,NNE,29.9,52.9,0.07,,Partly Cloudy,30,2012-11-08 02:35:00
9:55 PM,41.0,37.4,87,29.61,2.0,NNE,28.8,56.4,0.13,,Clear,30,2012-11-08 02:55:00
10:15 PM,41.0,39.2,93,29.60,2.0,NNE,28.8,50.6,0.17,,Clear,30,2012-11-08 03:15:00
10:35 PM,41.0,39.2,93,29.60,2.0,NE,31.1,43.7,0.28,,Scattered Clouds,40,2012-11-08 03:35:00
10:55 PM,41.0,39.2,93,29.59,1.8,NNE,32.2,49.5,0.37,,Scattered Clouds,30,2012-11-08 03:55:00
11:15 PM,41.0,39.2,93,29.58,1.8,NNE,27.6,50.6,0.07,,Scattered Clouds,30,2012-11-08 04:15:00
11:35 PM,41.0,39.2,93,29.58,2.0,NE,38.0,48.3,0.14,,Scattered Clouds,40,2012-11-08 04:35:00
11:55 PM,41.0,39.2,93,29.57,2.5,NE,36.8,50.6,0.33,,Clear,40,2012-11-08 04:55:00